Alturas, CA

7:04 PM PDT on May 26, 2018 (GMT -0700)
Alturas Municipal

Weather History for KAAT - June, 2013

Change the Weather History Date:

Tuesday, June 18, 2013

  Actual Average Record
Temperature  
Mean Temperature 54 °F 60 °F  
Max Temperature 71 °F 79 °F 97 °F (1985)
Min Temperature 37 °F 42 °F 21 °F (1973)
Degree Days  
Heating Degree Days 11 5  
Month to date heating degree days 81 134  
Since 1 June heating degree days 81 134  
Since 1 July heating degree days 6430 6891  
Cooling Degree Days 0 0  
Month to date cooling degree days 19 0  
Year to date cooling degree days 19 0  
Since 1 June cooling degree days 19 0  
Growing Degree Days 4 (Base 50)    
Moisture  
Dew Point 35 °F    
Average Humidity 51    
Maximum Humidity 83    
Minimum Humidity 18    
Precipitation  
Precipitation 0.06 in 0.03 in 0.78 in (1965)
Month to date precipitation 0.06 0.77  
Year to date precipitation 4.13 8.31  
Sea Level Pressure  
Sea Level Pressure 29.87 in    
Wind  
Wind Speed 9 mph (West)    
Max Wind Speed 26 mph    
Max Gust Speed 35 mph    
Visibility 10 miles    
Events Rain    
T = Trace of Precipitation, MM = Missing Value Source: NWS Daily Summary

Daily Weather History Graph

Daily Weather History Graph

Search for Another Location

Airport or City:

Astronomy

Jun. 18, 2013 Rise Set
Actual Time 5:28 AM PDT 8:38 PM PDT
Civil Twilight 4:54 AM PDT 9:12 PM PDT
Nautical Twilight 4:10 AM PDT 9:56 PM PDT
Astronomical Twilight 3:18 AM PDT 10:49 PM PDT
Moon 3:26 PM PDT (6/18) 1:42 AM PDT (6/18)
Length of Visible Light 16h 18m
Length of Day
15h 10m
Waxing Gibbous, 72% of the Moon is Illuminated
Jun 18
Waxing Gibbous
Jun 23
Full
Jun 29
Last Quarter
Jul 8
New
Jul 15
First Quarter

Hourly Weather History & Observations

Time (PDT) Temp. Windchill Dew Point Humidity Pressure Visibility Wind Dir Wind Speed Gust Speed Precip Events Conditions
12:55 AM 51.1 °F - 36.0 °F 56% 29.91 in 10.0 mi ENE 4.6 mph - N/A   Clear
1:55 AM 48.0 °F - 36.0 °F 63% 29.90 in 10.0 mi East 3.5 mph - N/A   Clear
2:55 AM 44.1 °F - 35.1 °F 71% 29.90 in 10.0 mi Calm Calm - N/A   Clear
3:55 AM 41.0 °F - 33.1 °F 73% 29.90 in 10.0 mi Calm Calm - N/A   Clear
4:55 AM 39.0 °F - 32.0 °F 76% 29.91 in 10.0 mi Calm Calm - N/A   Clear
5:55 AM 37.9 °F - 32.0 °F 79% 29.92 in 10.0 mi Calm Calm - N/A   Clear
6:55 AM 48.9 °F - 37.0 °F 64% 29.90 in 10.0 mi Calm Calm - N/A   Clear
7:55 AM 57.9 °F - 42.1 °F 56% 29.87 in 10.0 mi WSW 8.1 mph - N/A   Clear
8:55 AM 60.1 °F - 41.0 °F 49% 29.87 in 10.0 mi Calm Calm - N/A   Clear
9:55 AM 61.0 °F - 41.0 °F 48% 29.86 in 10.0 mi Variable 4.6 mph - N/A   Clear
10:55 AM 61.0 °F - 37.9 °F 42% 29.85 in 10.0 mi Calm Calm - N/A   Clear
11:55 AM 64.9 °F - 33.1 °F 31% 29.84 in 10.0 mi West 11.5 mph - N/A   Clear
12:55 PM 66.0 °F - 33.1 °F 29% 29.82 in 10.0 mi West 11.5 mph 20.7 mph N/A   Clear
1:55 PM 69.1 °F - 35.1 °F 29% 29.81 in 10.0 mi SW 12.7 mph 23.0 mph N/A   Clear
2:55 PM 66.9 °F - 37.0 °F 33% 29.81 in 10.0 mi West 12.7 mph 23.0 mph N/A   Scattered Clouds
3:55 PM 70.0 °F - 35.1 °F 28% 29.81 in 10.0 mi WSW 19.6 mph 28.8 mph N/A   Clear
4:55 PM 68.0 °F - 28.9 °F 23% 29.81 in 10.0 mi West 24.2 mph 29.9 mph N/A   Clear
5:55 PM 66.0 °F - 21.0 °F 18% 29.81 in 10.0 mi West 21.9 mph 27.6 mph N/A   Clear
6:55 PM 62.1 °F - 21.0 °F 21% 29.80 in 10.0 mi West 15.0 mph 27.6 mph N/A   Clear
7:11 PM 60.8 °F - 33.8 °F 36% 29.87 in 10.0 mi NW 23.0 mph 29.9 mph N/A   Partly Cloudy
7:55 PM 55.0 °F - 35.1 °F 47% 29.81 in 10.0 mi NW 15.0 mph 27.6 mph N/A   Clear
8:55 PM 51.1 °F - 36.0 °F 56% 29.85 in 10.0 mi NW 19.6 mph 28.8 mph N/A   Clear
9:43 PM 44.6 °F 37.8 °F 39.2 °F 81% 29.98 in 7.0 mi WSW 15.0 mph 27.6 mph 0.01 in Rain Light Rain
9:55 PM 44.1 °F 37.1 °F 41.0 °F 89% 29.93 in 6.0 mi West 15.0 mph - 0.04 in Rain Light Rain
10:55 PM 45.0 °F 41.2 °F 39.9 °F 82% 29.91 in 10.0 mi WNW 6.9 mph - 0.02 in Rain Light Rain
11:13 PM 44.6 °F 39.7 °F 39.2 °F 81% 29.97 in 10.0 mi WNW 9.2 mph - 0.00 in   Overcast
11:55 PM 44.1 °F 40.1 °F 39.0 °F 82% 29.91 in 10.0 mi NW 6.9 mph - 0.00 in Rain Light Rain